Year,Month,Day,Hour,Minute,Value (Times are PST for temperature in C)
2016,04,25,00,00,7.40
2016,04,25,00,01,7.40
2016,04,25,00,02,7.40
2016,04,25,00,03,7.40
2016,04,25,00,04,7.40
2016,04,25,00,05,7.40
2016,04,25,00,06,7.40
2016,04,25,00,07,7.50
2016,04,25,00,08,7.50
2016,04,25,00,09,7.50
2016,04,25,00,10,7.50
2016,04,25,00,11,7.50
2016,04,25,00,12,7.40
2016,04,25,00,13,7.40
2016,04,25,00,14,7.40
2016,04,25,00,15,7.40
2016,04,25,00,16,7.40
2016,04,25,00,17,7.40
2016,04,25,00,18,7.40
2016,04,25,00,19,7.40
2016,04,25,00,20,7.40
2016,04,25,00,21,7.40
2016,04,25,00,22,7.40
2016,04,25,00,23,7.40
2016,04,25,00,24,7.40
2016,04,25,00,25,7.40
2016,04,25,00,26,7.40
2016,04,25,00,27,7.40
2016,04,25,00,28,7.40
2016,04,25,00,29,7.40
2016,04,25,00,30,7.40
2016,04,25,00,31,7.40
2016,04,25,00,32,7.40
2016,04,25,00,33,7.40
2016,04,25,00,34,7.40
2016,04,25,00,35,7.40
2016,04,25,00,36,7.40
2016,04,25,00,37,7.40
2016,04,25,00,38,7.40
2016,04,25,00,39,7.50
2016,04,25,00,40,7.50
2016,04,25,00,41,7.50
2016,04,25,00,42,7.50
2016,04,25,00,43,7.50
2016,04,25,00,44,7.50
2016,04,25,00,45,7.50
2016,04,25,00,46,7.50
2016,04,25,00,47,7.50
2016,04,25,00,48,7.50
2016,04,25,00,49,7.50
2016,04,25,00,50,7.50
2016,04,25,00,51,7.50
2016,04,25,00,52,7.50
2016,04,25,00,53,7.50
2016,04,25,00,54,7.50
2016,04,25,00,55,7.50
2016,04,25,00,56,7.50
2016,04,25,00,57,7.50
2016,04,25,00,58,7.50
2016,04,25,00,59,7.40
2016,04,25,01,00,7.40
2016,04,25,01,01,7.40
2016,04,25,01,02,7.40
2016,04,25,01,03,7.40
2016,04,25,01,04,7.40
2016,04,25,01,05,7.40
2016,04,25,01,06,7.40
2016,04,25,01,07,7.40
2016,04,25,01,08,7.40
2016,04,25,01,09,7.40
2016,04,25,01,10,7.40
2016,04,25,01,11,7.40
2016,04,25,01,12,7.40
2016,04,25,01,13,7.40
2016,04,25,01,14,7.40
2016,04,25,01,15,7.40
2016,04,25,01,16,7.40
2016,04,25,01,17,7.40
2016,04,25,01,18,7.40
2016,04,25,01,19,7.40
2016,04,25,01,20,7.40
2016,04,25,01,21,7.40
2016,04,25,01,22,7.40
2016,04,25,01,23,7.40
2016,04,25,01,24,7.50
2016,04,25,01,25,7.50
2016,04,25,01,26,7.60
2016,04,25,01,27,7.60
2016,04,25,01,28,7.60
2016,04,25,01,29,7.60
2016,04,25,01,30,7.60
2016,04,25,01,31,7.60
2016,04,25,01,32,7.60
2016,04,25,01,33,7.60
2016,04,25,01,34,7.60
2016,04,25,01,35,7.60
2016,04,25,01,36,7.60
2016,04,25,01,37,7.60
2016,04,25,01,38,7.70
2016,04,25,01,39,7.70
2016,04,25,01,40,7.70
2016,04,25,01,41,7.70
2016,04,25,01,42,7.70
2016,04,25,01,43,7.70
2016,04,25,01,44,7.70
2016,04,25,01,45,7.70
2016,04,25,01,46,7.70
2016,04,25,01,47,7.70
2016,04,25,01,48,7.60
2016,04,25,01,49,7.60
2016,04,25,01,50,7.60
2016,04,25,01,51,7.60
2016,04,25,01,52,7.60
2016,04,25,01,53,7.60
2016,04,25,01,54,7.60
2016,04,25,01,55,7.60
2016,04,25,01,56,7.60
2016,04,25,01,57,7.60
2016,04,25,01,58,7.60
2016,04,25,01,59,7.60
2016,04,25,02,00,7.60
2016,04,25,02,01,7.60
2016,04,25,02,02,7.60
2016,04,25,02,03,7.60
2016,04,25,02,04,7.60
2016,04,25,02,05,7.60
2016,04,25,02,06,7.60
2016,04,25,02,07,7.60
2016,04,25,02,08,7.60
2016,04,25,02,09,7.50
2016,04,25,02,10,7.50
2016,04,25,02,11,7.50
2016,04,25,02,12,7.40
2016,04,25,02,13,7.40
2016,04,25,02,14,7.40
2016,04,25,02,15,7.40
2016,04,25,02,16,7.40
2016,04,25,02,17,7.40
2016,04,25,02,18,7.30
2016,04,25,02,19,7.30
2016,04,25,02,20,7.30
2016,04,25,02,21,7.30
2016,04,25,02,22,7.30
2016,04,25,02,23,7.30
2016,04,25,02,24,7.30
2016,04,25,02,25,7.30
2016,04,25,02,26,7.20
2016,04,25,02,27,7.20
2016,04,25,02,28,7.20
2016,04,25,02,29,7.20
2016,04,25,02,30,7.20
2016,04,25,02,31,7.20
2016,04,25,02,32,7.20
2016,04,25,02,33,7.20
2016,04,25,02,34,7.20
2016,04,25,02,35,7.20
2016,04,25,02,36,7.20
2016,04,25,02,37,7.20
2016,04,25,02,38,7.20
2016,04,25,02,39,7.20
2016,04,25,02,40,7.10
2016,04,25,02,41,7.10
2016,04,25,02,42,7.10
2016,04,25,02,43,7.10
2016,04,25,02,44,7.10
2016,04,25,02,45,7.00
2016,04,25,02,46,7.00
2016,04,25,02,47,7.00
2016,04,25,02,48,6.90
2016,04,25,02,49,6.90
2016,04,25,02,50,6.90
2016,04,25,02,51,6.90
2016,04,25,02,52,6.90
2016,04,25,02,53,6.90
2016,04,25,02,54,6.80
2016,04,25,02,55,6.80
2016,04,25,02,56,6.80
2016,04,25,02,57,6.80
2016,04,25,02,58,6.80
2016,04,25,02,59,6.80
2016,04,25,03,00,6.70
2016,04,25,03,01,6.70
2016,04,25,03,02,6.70
2016,04,25,03,03,6.70
2016,04,25,03,04,6.70
2016,04,25,03,05,6.60
2016,04,25,03,06,6.60
2016,04,25,03,07,6.60
2016,04,25,03,08,6.60
2016,04,25,03,09,6.60
2016,04,25,03,10,6.50
2016,04,25,03,11,6.50
2016,04,25,03,12,6.50
2016,04,25,03,13,6.40
2016,04,25,03,14,6.40
2016,04,25,03,15,6.40
2016,04,25,03,16,6.40
2016,04,25,03,17,6.30
2016,04,25,03,18,6.30
2016,04,25,03,19,6.30
2016,04,25,03,20,6.30
2016,04,25,03,21,6.30
2016,04,25,03,22,6.30
2016,04,25,03,23,6.20
2016,04,25,03,24,6.20
2016,04,25,03,25,6.20
2016,04,25,03,26,6.20
2016,04,25,03,27,6.20
2016,04,25,03,28,6.20
2016,04,25,03,29,6.20
2016,04,25,03,30,6.20
2016,04,25,03,31,6.20
2016,04,25,03,32,6.10
2016,04,25,03,33,6.20
2016,04,25,03,34,6.20
2016,04,25,03,35,6.20
2016,04,25,03,36,6.20
2016,04,25,03,37,6.20
2016,04,25,03,38,6.20
2016,04,25,03,39,6.20
2016,04,25,03,40,6.30
2016,04,25,03,41,6.30
2016,04,25,03,42,6.30
2016,04,25,03,43,6.30
2016,04,25,03,44,6.40
2016,04,25,03,45,6.40
2016,04,25,03,46,6.40
2016,04,25,03,47,6.40
2016,04,25,03,48,6.40
2016,04,25,03,49,6.40
2016,04,25,03,50,6.40
2016,04,25,03,51,6.40
2016,04,25,03,52,6.50
2016,04,25,03,53,6.50
2016,04,25,03,54,6.50
2016,04,25,03,55,6.50
2016,04,25,03,56,6.50
2016,04,25,03,57,6.50
2016,04,25,03,58,6.50
2016,04,25,03,59,6.50
2016,04,25,04,00,6.50
2016,04,25,04,01,6.50
2016,04,25,04,02,6.50
2016,04,25,04,03,6.50
2016,04,25,04,04,6.50
2016,04,25,04,05,6.40
2016,04,25,04,06,6.40
2016,04,25,04,07,6.40
2016,04,25,04,08,6.40
2016,04,25,04,09,6.40
2016,04,25,04,10,6.40
2016,04,25,04,11,6.30
2016,04,25,04,12,6.30
2016,04,25,04,13,6.30
2016,04,25,04,14,6.30
2016,04,25,04,15,6.30
2016,04,25,04,16,6.20
2016,04,25,04,17,6.20
2016,04,25,04,18,6.20
2016,04,25,04,19,6.20
2016,04,25,04,20,6.10
2016,04,25,04,21,6.10
2016,04,25,04,22,6.10
2016,04,25,04,23,6.00
2016,04,25,04,24,6.00
2016,04,25,04,25,5.90
2016,04,25,04,26,5.90
2016,04,25,04,27,5.90
2016,04,25,04,28,5.80
2016,04,25,04,29,5.80
2016,04,25,04,30,5.80
2016,04,25,04,31,5.80
2016,04,25,04,32,5.70
2016,04,25,04,33,5.70
2016,04,25,04,34,5.70
2016,04,25,04,35,5.60
2016,04,25,04,36,5.60
2016,04,25,04,37,5.60
2016,04,25,04,38,5.60
2016,04,25,04,39,5.50
2016,04,25,04,40,5.50
2016,04,25,04,41,5.50
2016,04,25,04,42,5.40
2016,04,25,04,43,5.40
2016,04,25,04,44,5.40
2016,04,25,04,45,5.30
2016,04,25,04,46,5.30
2016,04,25,04,47,5.30
2016,04,25,04,48,5.30
2016,04,25,04,49,5.30
2016,04,25,04,50,5.20
2016,04,25,04,51,5.20
2016,04,25,04,52,5.20
2016,04,25,04,53,5.10
2016,04,25,04,54,5.10
2016,04,25,04,55,5.10
2016,04,25,04,56,5.10
2016,04,25,04,57,5.10
2016,04,25,04,58,5.10
2016,04,25,04,59,5.00
2016,04,25,05,00,5.00
2016,04,25,05,01,5.00
2016,04,25,05,02,5.00
2016,04,25,05,03,4.90
2016,04,25,05,04,4.90
2016,04,25,05,05,4.90
2016,04,25,05,06,4.90
2016,04,25,05,07,4.90
2016,04,25,05,08,4.90
2016,04,25,05,09,4.80
2016,04,25,05,10,4.80
2016,04,25,05,11,4.80
2016,04,25,05,12,4.80
2016,04,25,05,13,4.80
2016,04,25,05,14,4.80
2016,04,25,05,15,4.80
2016,04,25,05,16,4.80
2016,04,25,05,17,4.80
2016,04,25,05,18,4.80
2016,04,25,05,19,4.80
2016,04,25,05,20,4.80
2016,04,25,05,21,4.80
2016,04,25,05,22,4.80
2016,04,25,05,23,4.80
2016,04,25,05,24,4.80
2016,04,25,05,25,4.70
2016,04,25,05,26,4.70
2016,04,25,05,27,4.70
2016,04,25,05,28,4.70
2016,04,25,05,29,4.70
2016,04,25,05,30,4.70
2016,04,25,05,31,4.70
2016,04,25,05,32,4.70
2016,04,25,05,33,4.70
2016,04,25,05,34,4.70
2016,04,25,05,35,4.70
2016,04,25,05,36,4.70
2016,04,25,05,37,4.60
2016,04,25,05,38,4.60
2016,04,25,05,39,4.60
2016,04,25,05,40,4.60
2016,04,25,05,41,4.60
2016,04,25,05,42,4.60
2016,04,25,05,43,4.50
2016,04,25,05,44,4.50
2016,04,25,05,45,4.50
2016,04,25,05,46,4.50
2016,04,25,05,47,4.50
2016,04,25,05,48,4.40
2016,04,25,05,49,4.40
2016,04,25,05,50,4.40
2016,04,25,05,51,4.40
2016,04,25,05,52,4.40
2016,04,25,05,53,4.40
2016,04,25,05,54,4.40
2016,04,25,05,55,4.40
2016,04,25,05,56,4.40
2016,04,25,05,57,4.40
2016,04,25,05,58,4.40
2016,04,25,05,59,4.40
2016,04,25,06,00,4.40
2016,04,25,06,01,4.40
2016,04,25,06,02,4.30
2016,04,25,06,03,4.30
2016,04,25,06,04,4.30
2016,04,25,06,05,4.30
2016,04,25,06,06,4.30
2016,04,25,06,07,4.30
2016,04,25,06,08,4.30
2016,04,25,06,09,4.30
2016,04,25,06,10,4.20
2016,04,25,06,11,4.20
2016,04,25,06,12,4.20
2016,04,25,06,13,4.20
2016,04,25,06,14,4.20
2016,04,25,06,15,4.20
2016,04,25,06,16,4.20
2016,04,25,06,17,4.10
2016,04,25,06,18,4.10
2016,04,25,06,19,4.10
2016,04,25,06,20,4.10
2016,04,25,06,21,4.10
2016,04,25,06,22,4.10
2016,04,25,06,23,4.10
2016,04,25,06,24,4.10
2016,04,25,06,25,4.10
2016,04,25,06,26,4.10
2016,04,25,06,27,4.10
2016,04,25,06,28,4.10
2016,04,25,06,29,4.10
2016,04,25,06,30,4.10
2016,04,25,06,31,4.10
2016,04,25,06,32,4.10
2016,04,25,06,33,4.10
2016,04,25,06,34,4.10
2016,04,25,06,35,4.10
2016,04,25,06,36,4.10
2016,04,25,06,37,4.10
2016,04,25,06,38,4.10
2016,04,25,06,39,4.10
2016,04,25,06,40,4.20
2016,04,25,06,41,4.20
2016,04,25,06,42,4.20
2016,04,25,06,43,4.20
2016,04,25,06,44,4.20
2016,04,25,06,45,4.20
2016,04,25,06,46,4.20
2016,04,25,06,47,4.20
2016,04,25,06,48,4.20
2016,04,25,06,49,4.20
2016,04,25,06,50,4.20
2016,04,25,06,51,4.20
2016,04,25,06,52,4.20
2016,04,25,06,53,4.20
2016,04,25,06,54,4.20
2016,04,25,06,55,4.20
2016,04,25,06,56,4.20
2016,04,25,06,57,4.20
2016,04,25,06,58,4.20
2016,04,25,06,59,4.20
2016,04,25,07,00,4.20
2016,04,25,07,01,4.20
2016,04,25,07,02,4.20
2016,04,25,07,03,4.20
2016,04,25,07,04,4.20
2016,04,25,07,05,4.20
2016,04,25,07,06,4.20
2016,04,25,07,07,4.20
2016,04,25,07,08,4.20
2016,04,25,07,09,4.20
2016,04,25,07,10,4.20
2016,04,25,07,11,4.30
2016,04,25,07,12,4.30
2016,04,25,07,13,4.30
2016,04,25,07,14,4.30
2016,04,25,07,15,4.30
2016,04,25,07,16,4.40
2016,04,25,07,17,4.40
2016,04,25,07,18,4.40
2016,04,25,07,19,4.40
2016,04,25,07,20,4.40
2016,04,25,07,21,4.40
2016,04,25,07,22,4.40
2016,04,25,07,23,4.40
2016,04,25,07,24,4.40
2016,04,25,07,25,4.50
2016,04,25,07,26,4.50
2016,04,25,07,27,4.50
2016,04,25,07,28,4.40
2016,04,25,07,29,4.50
2016,04,25,07,30,4.50
2016,04,25,07,31,4.50
2016,04,25,07,32,4.50
2016,04,25,07,33,4.50
2016,04,25,07,34,4.50
2016,04,25,07,35,4.50
2016,04,25,07,36,4.50
2016,04,25,07,37,4.50
2016,04,25,07,38,4.50
2016,04,25,07,39,4.50
2016,04,25,07,40,4.50
2016,04,25,07,41,4.50
2016,04,25,07,42,4.50
2016,04,25,07,43,4.50
2016,04,25,07,44,4.50
2016,04,25,07,45,4.50
2016,04,25,07,46,4.60
2016,04,25,07,47,4.60
2016,04,25,07,48,4.60
2016,04,25,07,49,4.70
2016,04,25,07,50,4.70
2016,04,25,07,51,4.70
2016,04,25,07,52,4.80
2016,04,25,07,53,4.80
2016,04,25,07,54,4.90
2016,04,25,07,55,5.00
2016,04,25,07,56,5.10
2016,04,25,07,57,5.30
2016,04,25,07,58,5.40
2016,04,25,07,59,5.50
2016,04,25,08,00,5.70
2016,04,25,08,01,5.80
2016,04,25,08,02,5.90
2016,04,25,08,03,6.10
2016,04,25,08,04,6.20
2016,04,25,08,05,6.30
2016,04,25,08,06,6.50
2016,04,25,08,07,6.60
2016,04,25,08,08,6.70
2016,04,25,08,09,6.90
2016,04,25,08,10,7.00
2016,04,25,08,11,7.10
2016,04,25,08,12,7.20
2016,04,25,08,13,7.30
2016,04,25,08,14,7.40
2016,04,25,08,15,7.40
2016,04,25,08,16,7.50
2016,04,25,08,17,7.60
2016,04,25,08,18,7.70
2016,04,25,08,19,7.80
2016,04,25,08,20,7.80
2016,04,25,08,21,7.90
2016,04,25,08,22,7.90
2016,04,25,08,23,8.00
2016,04,25,08,24,8.00
2016,04,25,08,25,8.10
2016,04,25,08,26,8.20
2016,04,25,08,27,8.20
2016,04,25,08,28,8.30
2016,04,25,08,29,8.40
2016,04,25,08,30,8.50
2016,04,25,08,31,8.50
2016,04,25,08,32,8.60
2016,04,25,08,33,8.70
2016,04,25,08,34,8.70
2016,04,25,08,35,8.80
2016,04,25,08,36,8.80
2016,04,25,08,37,8.80
2016,04,25,08,38,8.90
2016,04,25,08,39,8.90
2016,04,25,08,40,8.90
2016,04,25,08,41,8.90
2016,04,25,08,42,8.90
2016,04,25,08,43,8.90
2016,04,25,08,44,9.00
2016,04,25,08,45,9.00
2016,04,25,08,46,9.10
2016,04,25,08,47,9.10
2016,04,25,08,48,9.20
2016,04,25,08,49,9.30
2016,04,25,08,50,9.30
2016,04,25,08,51,9.30
2016,04,25,08,52,9.40
2016,04,25,08,53,9.40
2016,04,25,08,54,9.50
2016,04,25,08,55,9.60
2016,04,25,08,56,9.60
2016,04,25,08,57,9.70
2016,04,25,08,58,9.70
2016,04,25,08,59,9.80
2016,04,25,09,00,9.90
2016,04,25,09,01,10.00
2016,04,25,09,02,10.10
2016,04,25,09,03,10.30
2016,04,25,09,04,10.30
2016,04,25,09,05,10.30
2016,04,25,09,06,10.30
2016,04,25,09,07,10.40
2016,04,25,09,08,10.40
2016,04,25,09,09,10.40
2016,04,25,09,10,10.40
2016,04,25,09,11,10.40
2016,04,25,09,12,10.40
2016,04,25,09,13,10.40
2016,04,25,09,14,10.50
2016,04,25,09,15,10.50
2016,04,25,09,16,10.60
2016,04,25,09,17,10.60
2016,04,25,09,18,10.60
2016,04,25,09,19,10.60
2016,04,25,09,20,10.70
2016,04,25,09,21,10.70
2016,04,25,09,22,10.80
2016,04,25,09,23,10.80
2016,04,25,09,24,10.90
2016,04,25,09,25,11.00
2016,04,25,09,26,11.00
2016,04,25,09,27,11.00
2016,04,25,09,28,11.00
2016,04,25,09,29,10.90
2016,04,25,09,30,10.80
2016,04,25,09,31,10.70
2016,04,25,09,32,10.50
2016,04,25,09,33,10.40
2016,04,25,09,34,10.30
2016,04,25,09,35,10.20
2016,04,25,09,36,10.10
2016,04,25,09,37,10.10
2016,04,25,09,38,10.00
2016,04,25,09,39,9.90
2016,04,25,09,40,9.80
2016,04,25,09,41,9.80
2016,04,25,09,42,9.70
2016,04,25,09,43,9.70
2016,04,25,09,44,9.70
2016,04,25,09,45,9.70
2016,04,25,09,46,9.70
2016,04,25,09,47,9.70
2016,04,25,09,48,9.70
2016,04,25,09,49,9.70
2016,04,25,09,50,9.60
2016,04,25,09,51,9.50
2016,04,25,09,52,9.50
2016,04,25,09,53,9.40
2016,04,25,09,54,9.40
2016,04,25,09,55,9.30
2016,04,25,09,56,9.30
2016,04,25,09,57,9.30
2016,04,25,09,58,9.30
2016,04,25,09,59,9.40
2016,04,25,10,00,9.40
2016,04,25,10,01,9.50
2016,04,25,10,02,9.50
2016,04,25,10,03,9.60
2016,04,25,10,04,9.60
2016,04,25,10,05,9.60
2016,04,25,10,06,9.70
2016,04,25,10,07,9.70
2016,04,25,10,08,9.70
2016,04,25,10,09,9.70
2016,04,25,10,10,9.70
2016,04,25,10,11,9.70
2016,04,25,10,12,9.80
2016,04,25,10,13,9.80
2016,04,25,10,14,9.80
2016,04,25,10,15,9.80
2016,04,25,10,16,9.80
2016,04,25,10,17,9.80
2016,04,25,10,18,9.80
2016,04,25,10,19,9.90
2016,04,25,10,20,9.90
2016,04,25,10,21,9.90
2016,04,25,10,22,10.00
2016,04,25,10,23,10.00
2016,04,25,10,24,10.00
2016,04,25,10,25,9.90
2016,04,25,10,26,9.90
2016,04,25,10,27,9.90
2016,04,25,10,28,10.00
2016,04,25,10,29,10.00
2016,04,25,10,30,10.10
2016,04,25,10,31,10.10
2016,04,25,10,32,10.10
2016,04,25,10,33,10.10
2016,04,25,10,34,10.10
2016,04,25,10,35,10.10
2016,04,25,10,36,10.10
2016,04,25,10,37,10.10
2016,04,25,10,38,10.00
2016,04,25,10,39,10.00
2016,04,25,10,40,10.00
2016,04,25,10,41,10.00
2016,04,25,10,42,10.00
2016,04,25,10,43,10.00
2016,04,25,10,44,9.90
2016,04,25,10,45,9.90
2016,04,25,10,46,9.80
2016,04,25,10,47,9.80
2016,04,25,10,48,9.70
2016,04,25,10,49,9.70
2016,04,25,10,50,9.70
2016,04,25,10,51,9.70
2016,04,25,10,52,9.70
2016,04,25,10,53,9.70
2016,04,25,10,54,9.60
2016,04,25,10,55,9.60
2016,04,25,10,56,9.60
2016,04,25,10,57,9.60
2016,04,25,10,58,9.60
2016,04,25,10,59,9.60
2016,04,25,11,00,9.60
2016,04,25,11,01,9.50
2016,04,25,11,02,9.50
2016,04,25,11,03,9.50
2016,04,25,11,04,9.60
2016,04,25,11,05,9.60
2016,04,25,11,06,9.60
2016,04,25,11,07,9.60
2016,04,25,11,08,9.60
2016,04,25,11,09,9.60
2016,04,25,11,10,9.60
2016,04,25,11,11,9.50
2016,04,25,11,12,9.50
2016,04,25,11,13,9.50
2016,04,25,11,14,9.50
2016,04,25,11,15,9.40
2016,04,25,11,16,9.40
2016,04,25,11,17,9.40
2016,04,25,11,18,9.40
2016,04,25,11,19,9.40
2016,04,25,11,20,9.30
2016,04,25,11,21,9.30
2016,04,25,11,22,9.40
2016,04,25,11,23,9.40
2016,04,25,11,24,9.50
2016,04,25,11,25,9.60
2016,04,25,11,26,9.80
2016,04,25,11,27,9.90
2016,04,25,11,28,10.00
2016,04,25,11,29,10.20
2016,04,25,11,30,10.30
2016,04,25,11,31,10.50
2016,04,25,11,32,10.70
2016,04,25,11,33,10.80
2016,04,25,11,34,10.90
2016,04,25,11,35,11.00
2016,04,25,11,36,11.10
2016,04,25,11,37,11.20
2016,04,25,11,38,11.10
2016,04,25,11,39,11.10
2016,04,25,11,40,11.10
2016,04,25,11,41,11.10
2016,04,25,11,42,11.10
2016,04,25,11,43,11.10
2016,04,25,11,44,11.20
2016,04,25,11,45,11.30
2016,04,25,11,46,11.30
2016,04,25,11,47,11.40
2016,04,25,11,48,11.50
2016,04,25,11,49,11.50
2016,04,25,11,50,11.50
2016,04,25,11,51,11.40
2016,04,25,11,52,11.30
2016,04,25,11,53,11.20
2016,04,25,11,54,11.20
2016,04,25,11,55,11.20
2016,04,25,11,56,11.20
2016,04,25,11,57,11.10
2016,04,25,11,58,11.10
2016,04,25,11,59,11.10
2016,04,25,12,00,11.00
2016,04,25,12,01,11.00
2016,04,25,12,02,10.90
2016,04,25,12,03,10.90
2016,04,25,12,04,10.80
2016,04,25,12,05,10.70
2016,04,25,12,06,10.70
2016,04,25,12,07,10.70
2016,04,25,12,08,10.70
2016,04,25,12,09,10.70
2016,04,25,12,10,10.70
2016,04,25,12,11,10.70
2016,04,25,12,12,10.70
2016,04,25,12,13,10.60
2016,04,25,12,14,10.60
2016,04,25,12,15,10.60
2016,04,25,12,16,10.60
2016,04,25,12,17,10.60
2016,04,25,12,18,10.50
2016,04,25,12,19,10.50
2016,04,25,12,20,10.50
2016,04,25,12,21,10.40
2016,04,25,12,22,10.40
2016,04,25,12,23,10.40
2016,04,25,12,24,10.30
2016,04,25,12,25,10.30
2016,04,25,12,26,10.20
2016,04,25,12,27,10.20
2016,04,25,12,28,10.20
2016,04,25,12,29,10.10
2016,04,25,12,30,10.10
2016,04,25,12,31,10.10
2016,04,25,12,32,10.10
2016,04,25,12,33,10.10
2016,04,25,12,34,10.10
2016,04,25,12,35,10.00
2016,04,25,12,36,10.00
2016,04,25,12,37,9.90
2016,04,25,12,38,9.80
2016,04,25,12,39,9.80
2016,04,25,12,40,9.80
2016,04,25,12,41,9.80
2016,04,25,12,42,9.70
2016,04,25,12,43,9.70
2016,04,25,12,44,9.70
2016,04,25,12,45,9.80
2016,04,25,12,46,9.80
2016,04,25,12,47,9.90
2016,04,25,12,48,10.00
2016,04,25,12,49,10.10
2016,04,25,12,50,10.20
2016,04,25,12,51,10.30
2016,04,25,12,52,10.30
2016,04,25,12,53,10.40
2016,04,25,12,54,10.50
2016,04,25,12,55,10.50
2016,04,25,12,56,10.50
2016,04,25,12,57,10.60
2016,04,25,12,58,10.60
2016,04,25,12,59,10.60
2016,04,25,13,00,10.60
2016,04,25,13,01,10.60
2016,04,25,13,02,10.60
2016,04,25,13,03,10.60
2016,04,25,13,04,10.60
2016,04,25,13,05,10.60
2016,04,25,13,06,10.70
2016,04,25,13,07,10.80
2016,04,25,13,08,10.80
2016,04,25,13,09,10.90
2016,04,25,13,10,10.90
2016,04,25,13,11,11.00
2016,04,25,13,12,11.10
2016,04,25,13,13,11.20
2016,04,25,13,14,11.30
2016,04,25,13,15,11.40
2016,04,25,13,16,11.40
2016,04,25,13,17,11.40
2016,04,25,13,18,11.50
2016,04,25,13,19,11.50
2016,04,25,13,20,11.60
2016,04,25,13,21,11.70
2016,04,25,13,22,11.80
2016,04,25,13,23,11.90
2016,04,25,13,24,12.00
2016,04,25,13,25,12.10
2016,04,25,13,26,12.20
2016,04,25,13,27,12.20
2016,04,25,13,28,12.30
2016,04,25,13,29,12.30
2016,04,25,13,30,12.40
2016,04,25,13,31,12.40
2016,04,25,13,32,12.30
2016,04,25,13,33,12.30
2016,04,25,13,34,12.20
2016,04,25,13,35,12.20
2016,04,25,13,36,12.10
2016,04,25,13,37,12.10
2016,04,25,13,38,12.10
2016,04,25,13,39,12.00
2016,04,25,13,40,11.90
2016,04,25,13,41,11.80
2016,04,25,13,42,11.70
2016,04,25,13,43,11.70
2016,04,25,13,44,11.70
2016,04,25,13,45,11.60
2016,04,25,13,46,11.60
2016,04,25,13,47,11.60
2016,04,25,13,48,11.60
2016,04,25,13,49,11.60
2016,04,25,13,50,11.60
2016,04,25,13,51,11.60
2016,04,25,13,52,11.60
2016,04,25,13,53,11.70
2016,04,25,13,54,11.70
2016,04,25,13,55,11.80
2016,04,25,13,56,11.80
2016,04,25,13,57,11.80
2016,04,25,13,58,11.90
2016,04,25,13,59,11.90
2016,04,25,14,00,11.90
2016,04,25,14,01,11.90
2016,04,25,14,02,11.90
2016,04,25,14,03,11.90
2016,04,25,14,04,11.90
2016,04,25,14,05,12.00
2016,04,25,14,06,12.10
2016,04,25,14,07,12.10
2016,04,25,14,08,12.10
2016,04,25,14,09,12.10
2016,04,25,14,10,12.10
2016,04,25,14,11,12.20
2016,04,25,14,12,12.20
2016,04,25,14,13,12.20
2016,04,25,14,14,12.20
2016,04,25,14,15,12.20
2016,04,25,14,16,12.20
2016,04,25,14,17,12.20
2016,04,25,14,18,12.30
2016,04,25,14,19,12.30
2016,04,25,14,20,12.30
2016,04,25,14,21,12.30
2016,04,25,14,22,12.40
2016,04,25,14,23,12.40
2016,04,25,14,24,12.40
2016,04,25,14,25,12.40
2016,04,25,14,26,12.40
2016,04,25,14,27,12.30
2016,04,25,14,28,12.30
2016,04,25,14,29,12.30
2016,04,25,14,30,12.30
2016,04,25,14,31,12.20
2016,04,25,14,32,12.20
2016,04,25,14,33,12.20
2016,04,25,14,34,12.20
2016,04,25,14,35,12.20
2016,04,25,14,36,12.20
2016,04,25,14,37,12.20
2016,04,25,14,38,12.30
2016,04,25,14,39,12.30
2016,04,25,14,40,12.40
2016,04,25,14,41,12.50
2016,04,25,14,42,12.60
2016,04,25,14,43,12.60
2016,04,25,14,44,12.70
2016,04,25,14,45,12.70
2016,04,25,14,46,12.80
2016,04,25,14,47,12.80
2016,04,25,14,48,12.90
2016,04,25,14,49,13.00
2016,04,25,14,50,13.10
2016,04,25,14,51,13.30
2016,04,25,14,52,13.30
2016,04,25,14,53,13.30
2016,04,25,14,54,13.20
2016,04,25,14,55,13.20
2016,04,25,14,56,13.20
2016,04,25,14,57,13.20
2016,04,25,14,58,13.20
2016,04,25,14,59,13.30
2016,04,25,15,00,13.30
2016,04,25,15,01,13.30
2016,04,25,15,02,13.40
2016,04,25,15,03,13.40
2016,04,25,15,04,13.40
2016,04,25,15,05,13.40
2016,04,25,15,06,13.50
2016,04,25,15,07,13.50
2016,04,25,15,08,13.60
2016,04,25,15,09,13.70
2016,04,25,15,10,13.80
2016,04,25,15,11,13.90
2016,04,25,15,12,14.10
2016,04,25,15,13,14.20
2016,04,25,15,14,14.30
2016,04,25,15,15,14.20
2016,04,25,15,16,14.10
2016,04,25,15,17,14.00
2016,04,25,15,18,13.80
2016,04,25,15,19,13.70
2016,04,25,15,20,13.60
2016,04,25,15,21,13.60
2016,04,25,15,22,13.60
2016,04,25,15,23,13.60
2016,04,25,15,24,13.60
2016,04,25,15,25,13.50
2016,04,25,15,26,13.50
2016,04,25,15,27,13.50
2016,04,25,15,28,13.60
2016,04,25,15,29,13.70
2016,04,25,15,30,13.80
2016,04,25,15,31,14.00
2016,04,25,15,32,14.10
2016,04,25,15,33,14.10
2016,04,25,15,34,14.20
2016,04,25,15,35,14.30
2016,04,25,15,36,14.30
2016,04,25,15,37,14.30
2016,04,25,15,38,14.20
2016,04,25,15,39,14.10
2016,04,25,15,40,14.10
2016,04,25,15,41,14.00
2016,04,25,15,42,13.90
2016,04,25,15,43,13.80
2016,04,25,15,44,13.70
2016,04,25,15,45,13.70
2016,04,25,15,46,13.70
2016,04,25,15,47,13.70
2016,04,25,15,48,13.60
2016,04,25,15,49,13.60
2016,04,25,15,50,13.50
2016,04,25,15,51,13.50
2016,04,25,15,52,13.40
2016,04,25,15,53,13.40
2016,04,25,15,54,13.40
2016,04,25,15,55,13.30
2016,04,25,15,56,13.30
2016,04,25,15,57,13.40
2016,04,25,15,58,13.40
2016,04,25,15,59,13.40
2016,04,25,16,00,13.40
2016,04,25,16,01,13.40
2016,04,25,16,02,13.30
2016,04,25,16,03,13.40
2016,04,25,16,04,13.40
2016,04,25,16,05,13.40
2016,04,25,16,06,13.50
2016,04,25,16,07,13.50
2016,04,25,16,08,13.60
2016,04,25,16,09,13.60
2016,04,25,16,10,13.60
2016,04,25,16,11,13.60
2016,04,25,16,12,13.60
2016,04,25,16,13,13.70
2016,04,25,16,14,13.70
2016,04,25,16,15,13.80
2016,04,25,16,16,13.80
2016,04,25,16,17,13.80
2016,04,25,16,18,13.80
2016,04,25,16,19,13.80
2016,04,25,16,20,13.90
2016,04,25,16,21,13.90
2016,04,25,16,22,13.90
2016,04,25,16,23,13.90
2016,04,25,16,24,13.90
2016,04,25,16,25,13.90
2016,04,25,16,26,14.00
2016,04,25,16,27,14.00
2016,04,25,16,28,14.00
2016,04,25,16,29,14.00
2016,04,25,16,30,13.90
2016,04,25,16,31,13.80
2016,04,25,16,32,13.80
2016,04,25,16,33,13.70
2016,04,25,16,34,13.70
2016,04,25,16,35,13.70
2016,04,25,16,36,13.70
2016,04,25,16,37,13.70
2016,04,25,16,38,13.70
2016,04,25,16,39,13.60
2016,04,25,16,40,13.60
2016,04,25,16,41,13.50
2016,04,25,16,42,13.40
2016,04,25,16,43,13.40
2016,04,25,16,44,13.40
2016,04,25,16,45,13.40
2016,04,25,16,46,13.30
2016,04,25,16,47,13.30
2016,04,25,16,48,13.30
2016,04,25,16,49,13.30
2016,04,25,16,50,13.30
2016,04,25,16,51,13.30
2016,04,25,16,52,13.30
2016,04,25,16,53,13.30
2016,04,25,16,54,13.40
2016,04,25,16,55,13.40
2016,04,25,16,56,13.40
2016,04,25,16,57,13.40
2016,04,25,16,58,13.40
2016,04,25,16,59,13.40
2016,04,25,17,00,13.40
2016,04,25,17,01,13.40
2016,04,25,17,02,13.40
2016,04,25,17,03,13.30
2016,04,25,17,04,13.30
2016,04,25,17,05,13.30
2016,04,25,17,06,13.30
2016,04,25,17,07,13.30
2016,04,25,17,08,13.30
2016,04,25,17,09,13.30
2016,04,25,17,10,13.30
2016,04,25,17,11,13.30
2016,04,25,17,12,13.30
2016,04,25,17,13,13.30
2016,04,25,17,14,13.30
2016,04,25,17,15,13.20
2016,04,25,17,16,13.20
2016,04,25,17,17,13.20
2016,04,25,17,18,13.20
2016,04,25,17,19,13.20
2016,04,25,17,20,13.20
2016,04,25,17,21,13.10
2016,04,25,17,22,13.10
2016,04,25,17,23,13.10
2016,04,25,17,24,13.10
2016,04,25,17,25,13.10
2016,04,25,17,26,13.10
2016,04,25,17,27,13.10
2016,04,25,17,28,13.10
2016,04,25,17,29,13.10
2016,04,25,17,30,13.10
2016,04,25,17,31,13.10
2016,04,25,17,32,13.00
2016,04,25,17,33,13.00
2016,04,25,17,34,12.90
2016,04,25,17,35,12.90
2016,04,25,17,36,12.80
2016,04,25,17,37,12.80
2016,04,25,17,38,12.80
2016,04,25,17,39,12.80
2016,04,25,17,40,12.80
2016,04,25,17,41,12.70
2016,04,25,17,42,12.70
2016,04,25,17,43,12.70
2016,04,25,17,44,12.70
2016,04,25,17,45,12.70
2016,04,25,17,46,12.70
2016,04,25,17,47,12.70